Weather History for Christchurch, New Zealand

Change the Weather History Date:

Sunday, December 1, 2013

  Actual Average Record
Temperature  
Mean Temperature 55 °F -  
Max Temperature 69 °F 65 °F 87 °F (2001)
Min Temperature 41 °F 47 °F 37 °F (2012)
Degree Days  
Heating Degree Days 10    
Growing Degree Days 5 (Base 50)    
Moisture  
Dew Point 41 °F    
Average Humidity 63    
Maximum Humidity 93    
Minimum Humidity 30    
Precipitation  
Precipitation 0.00 in - - ()
Sea Level Pressure  
Sea Level Pressure 29.82 in    
Wind  
Wind Speed 8 mph ()    
Max Wind Speed 26 mph    
Max Gust Speed 31 mph    
Visibility 6.2 miles    
Events      
Averages and records for this station are not official NWS values.
T = Trace of Precipitation, MM = Missing Value Source: Averaged Metar Reports

Daily Weather History Graph

Daily Weather History Graph

Search for Another Location

Airport:

Trip Planner

Search our weather history database for the weather conditions in past years. The results will help you decide how hot, cold, wet, or windy it might be!

Date:

Astronomy

Dec. 01, 2013 Rise Set
Actual Time 5:44 AM NZDT 8:53 PM NZDT
Civil Twilight 5:09 AM NZDT 9:28 PM NZDT
Nautical Twilight 4:25 AM NZDT 10:13 PM NZDT
Astronomical Twilight 3:31 AM NZDT 11:07 PM NZDT
Moon 4:15 AM NZDT 6:40 PM NZDT
Length of Visible Light 16h 18m
Length of Day
15h 09m
Waning Crescent, 6% of the Moon is Illuminated
Dec 1
Waning Crescent
Dec 3
New
Dec 10
First Quarter
Dec 17
Full
Dec 26
Last Quarter

Hourly Weather History & Observations

Time (NZDT) Temp. Windchill Dew Point Humidity Pressure Visibility Wind Dir Wind Speed Gust Speed Precip Events Conditions
12:00 AM 48.2 °F - 42.8 °F 82% 29.65 in 6.2 mi West 3.5 mph - N/A   Mostly Cloudy
12:30 AM 46.4 °F 45.2 °F 42.8 °F 87% 29.65 in 6.2 mi NW 3.5 mph - N/A   Mostly Cloudy
1:00 AM 44.6 °F 43.1 °F 41.0 °F 87% 29.65 in 6.2 mi NNE 3.5 mph - N/A   Partly Cloudy
1:30 AM 46.4 °F 45.2 °F 41.0 °F 81% 29.62 in 6.2 mi NNE 3.5 mph - N/A   Scattered Clouds
2:00 AM 42.8 °F 37.5 °F 41.0 °F 93% 29.62 in 6.2 mi NE 9.2 mph - N/A   Unknown
2:30 AM 46.4 °F 45.2 °F 42.8 °F 87% 29.62 in 6.2 mi NNE 3.5 mph - N/A   Unknown
3:00 AM 44.6 °F 43.1 °F 41.0 °F 87% 29.62 in 6.2 mi ENE 3.5 mph - N/A   Unknown
3:30 AM 44.6 °F 43.1 °F 42.8 °F 93% 29.62 in 6.2 mi NNW 3.5 mph - N/A   Unknown
4:00 AM 46.4 °F 45.2 °F 42.8 °F 87% 29.62 in 6.2 mi SSE 3.5 mph - N/A   Unknown
4:30 AM 46.4 °F 45.2 °F 41.0 °F 81% 29.62 in 6.2 mi North 3.5 mph - N/A   Unknown
5:00 AM 42.8 °F - 41.0 °F 93% 29.65 in 6.2 mi SSE 2.3 mph - N/A   Unknown
5:30 AM 41.0 °F - 39.2 °F 93% 29.65 in 6.2 mi North 1.2 mph - N/A   Unknown
6:00 AM 41.0 °F 38.0 °F 39.2 °F 93% 29.65 in 6.2 mi NNE 4.6 mph - N/A   Unknown
6:30 AM 44.6 °F 43.1 °F 41.0 °F 87% 29.65 in 6.2 mi North 3.5 mph - N/A   Unknown
7:00 AM 48.2 °F - 42.8 °F 82% 29.68 in 6.2 mi NE 3.5 mph - N/A   Unknown
7:30 AM 55.4 °F - 35.6 °F 47% 29.68 in 6.2 mi WNW 9.2 mph - N/A   Unknown
8:00 AM 59.0 °F - 33.8 °F 39% 29.68 in 6.2 mi WNW 11.5 mph - N/A   Unknown
8:30 AM 60.8 °F - 32.0 °F 34% 29.71 in 6.2 mi WNW 13.8 mph - N/A   Unknown
9:00 AM 62.6 °F - 33.8 °F 34% 29.71 in 6.2 mi WNW 17.3 mph - N/A   Unknown
9:30 AM 64.4 °F - 33.8 °F 32% 29.74 in 6.2 mi WNW 19.6 mph 31.1 mph N/A   Unknown
10:00 AM 66.2 °F - 35.6 °F 32% 29.74 in 6.2 mi West 17.3 mph - N/A   Unknown
10:30 AM 66.2 °F - 35.6 °F 32% 29.74 in 6.2 mi West 16.1 mph - N/A   Unknown
11:00 AM 68.0 °F - 37.4 °F 33% 29.77 in 6.2 mi WNW 15.0 mph - N/A   Unknown
11:30 AM 69.8 °F - 37.4 °F 31% 29.77 in 6.2 mi West 15.0 mph - N/A   Unknown
12:00 PM 68.0 °F - 35.6 °F 30% 29.77 in 6.2 mi WSW 10.4 mph - N/A   Scattered Clouds
12:30 PM 68.0 °F - 39.2 °F 35% 29.77 in 6.2 mi SW 13.8 mph - N/A   Mostly Cloudy
1:00 PM 62.6 °F - 46.4 °F 55% 29.80 in 6.2 mi South 20.7 mph - N/A   Mostly Cloudy
1:30 PM 62.6 °F - 46.4 °F 55% 29.83 in 6.2 mi South 23.0 mph - N/A   Unknown
2:00 PM 62.6 °F - 46.4 °F 55% 29.86 in 6.2 mi South 26.5 mph - N/A   Unknown
2:30 PM 60.8 °F - 46.4 °F 59% 29.86 in 6.2 mi South 24.2 mph - N/A   Unknown
3:00 PM 60.8 °F - 44.6 °F 55% 29.89 in 6.2 mi South 20.7 mph - N/A   Mostly Cloudy
3:30 PM 59.0 °F - 44.6 °F 59% 29.92 in 6.2 mi South 17.3 mph - N/A   Mostly Cloudy
4:00 PM 60.8 °F - 46.4 °F 59% 29.95 in 6.2 mi SSW 21.9 mph - N/A   Mostly Cloudy
4:30 PM 60.8 °F - 42.8 °F 52% 29.95 in 6.2 mi South 18.4 mph - N/A   Partly Cloudy
5:00 PM 59.0 °F - 42.8 °F 55% 29.98 in 6.2 mi South 18.4 mph - N/A   Scattered Clouds
5:30 PM 59.0 °F - 42.8 °F 55% 29.98 in 6.2 mi South 16.1 mph - N/A   Mostly Cloudy
6:00 PM 57.2 °F - 41.0 °F 55% 30.01 in 6.2 mi South 11.5 mph - N/A   Overcast
6:30 PM 57.2 °F - 41.0 °F 55% 30.01 in 6.2 mi SSW 10.4 mph - N/A   Overcast
7:00 PM 55.4 °F - 41.0 °F 58% 30.04 in 6.2 mi SSW 9.2 mph - N/A   Overcast
7:30 PM 55.4 °F - 41.0 °F 58% 30.04 in 6.2 mi SSW 8.1 mph - N/A   Overcast
8:00 PM 55.4 °F - 41.0 °F 58% 30.06 in 6.2 mi SW 4.6 mph - N/A   Overcast
8:30 PM 53.6 °F - 41.0 °F 62% 30.06 in 6.2 mi WSW 1.2 mph - N/A   Overcast
9:00 PM 53.6 °F - 42.8 °F 67% 30.09 in 6.2 mi NW 3.5 mph - N/A   Overcast
9:30 PM 53.6 °F - 44.6 °F 72% 30.09 in 6.2 mi NNE 5.8 mph - N/A   Overcast
10:00 PM 53.6 °F - 44.6 °F 72% 30.12 in 6.2 mi NE 6.9 mph - N/A   Overcast
10:30 PM 53.6 °F - 44.6 °F 72% 30.12 in 6.2 mi NE 9.2 mph - N/A   Overcast
11:00 PM 53.6 °F - 44.6 °F 72% 30.12 in 6.2 mi NE 10.4 mph - N/A   Overcast
11:30 PM 53.6 °F - 42.8 °F 67% 30.12 in 6.2 mi NE 8.1 mph - N/A   Overcast